User: anonymous   Login
Location: Arthez
(43.0833°N, 0.2500°W)
Time: 11:25:21
(UTC+00:00)
Language:

FENGYUN 1C DEB - Orbit

View from above orbital plane
View from above orbital plane
View from above satellite
View from above satellite

Ground track
Ground track

The orbit data is extracted from the following two-line orbital elements,

1 32324U 99025CXR 22228.30242724  .00000237  00000-0  17246-3 0  9994
2 32324  99.6292 242.7777 0053383 118.7613 241.8930 14.06042778469159
Epoch (UTC): 16 August 2022 07:15:29
Eccentricity: 0.0053383
inclination: 99.6292°
perigee height: 834 km
apogee height: 911 km
right ascension of ascending node: 242.7777°
argument of perigee: 118.7613°
revolutions per day: 14.06042778
mean anomaly at epoch: 241.8930°
orbit number at epoch: 46915

The dashed part of the orbit path shows where the satellite is in the earth's shadow,  

DLR